Content
SEND FEEDBACK

Daily
Averages
Monthly
Summary
United States of America

TYRONE, PENNSYLVANIA


Home > North America > United States > Pennsylvania
Elevation: 1080 feet     Latitude: 40 43N     Longitude: 078 11W

WEATHER
 
SELECT A DAY
Number of Records: 302,608;   Date Range: 1/1/95 - 9/3/14
 
SHARE

PRINT THIS DATA

[ ← Previous Day ]
WEATHER ALMANAC - JANUARY 23, 2013
[ Next Day → ]
[ °C ]   °F
Weather ElementAverageHighLow
Temperature7.6 °F15.8 °F (2:53 pm)4.6 °F (4:15 am)
Dewpoint-2.4 °F0.5 °F (10:15 pm)-4 °F (5:53 am)
Humidity64.3 %74 % (9:55 pm)41 % (2:53 pm)
Barometer30.13 in30.19 in (8:53 am)30.05 in (11:35 pm)
Wind Speed9.3 mph18.4 mph (9:53 am)
Wind Gust19.6 mph (2:35 am)
Weather ElementAverage
Visibility9.8 mi
Wind DirectionSW (223.7 °)

Weather ElementTotal
Precipitation---
Heating Degree Days54.8 (Base 65)
Averaged from 38 records on January 23, 2013
WEATHER CONDITIONS BREAKOUT
WIND DIRECTION BREAKOUT
WEATHER BY HOUR - JANUARY 23, 2013
[ °C ]   °F
Local TimeTemperatureDewpointHumidityBarometerVisibilityWind DirectionWind SpeedGust SpeedPrecipitationEventsConditions
12:35 AM5.9 °F-3.3 °F66 %30.14 in10.0 miWSW (250°)11.5 mphClear
12:55 AM5.9 °F-3.3 °F66 %30.14 in10.0 miWSW (250°)11.5 mphClear
1:15 AM5.7 °F-3.6 °F65 %30.14 in10.0 miWest (260°)13.8 mphClear
1:35 AM5.5 °F-3.5 °F66 %30.14 in10.0 miWSW (250°)12.7 mphClear
1:55 AM5.4 °F-3.5 °F67 %30.15 in10.0 miWSW (250°)11.5 mphClear
2:15 AM5.5 °F-3.3 °F67 %30.16 in10.0 miWest (260°)11.5 mph17.3 mphClear
2:35 AM5.4 °F-3.1 °F68 %30.16 in10.0 miWSW (250°)13.8 mph19.6 mphClear
2:55 AM5.2 °F-3.3 °F68 %30.16 in10.0 miWest (260°)11.5 mphClear
3:15 AM5.0 °F-3.3 °F69 %30.16 in10.0 miWSW (250°)11.5 mphClear
3:35 AM4.8 °F-3.1 °F70 %30.16 in10.0 miWSW (250°)9.2 mphClear
3:55 AM4.8 °F-2.9 °F70 %30.16 in10.0 miWest (260°)11.5 mphClear
4:15 AM4.6 °F-2.9 °F71 %30.16 in10.0 miWSW (250°)9.2 mphClear
4:35 AM4.8 °F-3.1 °F70 %30.15 in10.0 miWest (260°)9.2 mphClear
4:55 AM4.8 °F-3.3 °F69 %30.15 in10.0 miWest (260°)6.9 mph17.3 mphClear
5:15 AM4.6 °F-3.3 °F70 %30.16 in10.0 miWSW (250°)10.4 mph17.3 mphClear
5:53 AM5.0 °F-4.0 °F66 %30.16 in10.0 miWest (270°)11.5 mphClear
6:53 AM5.0 °F-4.0 °F66 %30.16 in10.0 miWest (270°)15.0 mphPartly Cloudy
7:53 AM5.0 °F-4.0 °F66 %30.17 in10.0 miWest (260°)10.4 mphPartly Cloudy
8:53 AM6.8 °F-2.2 °F67 %30.19 in10.0 miWSW (250°)9.2 mphPartly Cloudy
9:53 AM8.6 °F-2.2 °F62 %30.19 in10.0 miWSW (250°)18.4 mphScattered Clouds
10:55 AM12.2 °F-0.4 °F57 %30.18 in10.0 miWest (280°)10.4 mphMostly Cloudy
11:53 AM14.0 °F-0.4 °F53 %30.15 in7.0 miWest (280°)13.8 mphOvercast
12:53 PM12.2 °F-4.0 °F48 %30.12 in7.0 miWest (280°)13.8 mphOvercast
1:53 PM14.0 °F-2.2 °F49 %30.10 in7.0 miWest (280°)13.8 mphOvercast
2:53 PM15.8 °F-4.0 °F41 %30.10 in10.0 miWest (280°)16.1 mphMostly Cloudy
3:53 PM14.0 °F-2.2 °F49 %30.11 in10.0 miWNW (290°)11.5 mphMostly Cloudy
4:53 PM12.2 °F-4.0 °F48 %30.11 in10.0 miWest (280°)11.5 mphMostly Cloudy
5:53 PM10.4 °F-4.0 °F52 %30.10 in10.0 miWest (270°)9.2 mphScattered Clouds
6:53 PM8.6 °F-2.2 °F62 %30.10 in10.0 miWSW (240°)5.8 mphClear
7:53 PM8.6 °F-2.2 °F62 %30.09 in10.0 miWSW (240°)4.6 mphPartly Cloudy
8:53 PM8.6 °F-2.2 °F62 %30.09 in10.0 miCalmPartly Cloudy
9:55 PM6.4 °F-0.4 °F74 %30.09 in10.0 miSSW (210°)3.5 mphOvercast
10:15 PM7.2 °F0.5 °F74 %30.08 in10.0 miSW (220°)3.5 mphOvercast
10:35 PM7.3 °F0.5 °F74 %30.08 in10.0 miCalmOvercast
10:55 PM7.5 °F0.1 °F72 %30.07 in10.0 miWSW (240°)5.8 mphOvercast
11:15 PM7.7 °F0.3 °F72 %30.06 in10.0 miCalmMostly Cloudy
11:35 PM6.6 °F-0.4 °F73 %30.05 in10.0 miCalmScattered Clouds
11:55 PM6.6 °F0.0 °F74 %30.05 in10.0 miCalmClear
Hourly data recorded from KUNV, located miles away from Tyrone, Pennsylvania







STORIES FROM OUR PARTNERS